STARLINK-31397 (59540 NORAD) Tracking and Keplerian Element Data

This shows tracking and keplerian element data for the satellite.

Feedback or suggestion? Click here.




ElementValue
Catalog59540
NameSTARLINK-31397
Epoch Orbit772
Epoch Day159.3729522
Epoch Year2024
RAAN31.0675
Inclination43.0016
Eccentricity0.0001766
Argument of Perigee278.2468
Mean Anonmoly81.8188
Mean Motion15.40688408
Decay Rate-1.732E-05
L11 59540U 24074G 24159.37295220 -.00001732 00000+0 -34212-4 0 9991
L22 59540 43.0016 31.0675 0001766 278.2468 81.8188 15.40688408 7722



Live tracking and technical data element details for STARLINK-31397 (NORAD 59540). STARLINK-31397 can be tracked NOW for your location showing map with azimuth and elevation plus other details from your city location.







IsCatalogInMostPopularTable: catalog: 59540, numindb: 13
Update: records affected: 1



GetName: 59540 STARLINK-31397

Hit Count: updated at: Fri, 14 Jun 2024 17:53:16 GMT